Location: Beddau
(51.5575°N, 3.3561°W)
Time: 12:31:23
(UTC+00:00)

Cosmos 2369 Rocket - Pass Details

Date: 03 March 2021
Orbit: 829 x 852 km, 71.0° (Epoch: 10 April)

Event Time Altitude Azimuth Distance (km) Brightness Sun altitude
Rises 19:42:09 0° 324° (NW) 3,383 6.1 -17.0°
Reaches altitude 10° 19:46:17 10° 353° (N) 2,448 4.8 -17.6°
Maximum altitude 19:48:35 12° 18° (NNE) 2,275 4.4 -18.0°
Drops below altitude 10° 19:50:54 10° 43° (NE) 2,448 4.3 -18.3°
Enters shadow 19:51:05 10° 44° (NE) 2,475 4.3 -18.3°
